Hourly Data Report for October 20, 2016

All times are specified in Local Standard Time (LST). Add 1 hour to adjust for Daylight Saving Time where and when it is observed.

CORAL HARBOUR A
NUNAVUT

64°11'36.000" N
83°21'34.000" W
62.20 m
2301002
71915
YZS

Download Data

Hourly Data (October 2016)
Hourly Data Report for October 20, 2016
Temp Definition
°C
Dew Point Temp Definition
°C
Rel Hum Definition
%
Wind Dir Definition
10's deg

Wind Spd Definition
km/h
Visibility Definition
km
Stn Press Definition
kPa
Hmdx Definition


Wind Chill Definition


Weather Definition


TIME
00:00 Legend Double Dagger -4.0 -6.5 83 22 35 24.1 101.07   -12 LegendNANA
01:00 Legend Double Dagger -3.9 -5.3 90 22 35 19.3 100.98   -12 Snow
02:00 Legend Double Dagger -3.7 -4.7 93 22 32 19.3 100.91   -12 Snow
03:00 Legend Double Dagger -3.1 -3.9 94 24 35 19.3 100.83   -11 LegendNANA
04:00 Legend Double Dagger -2.4 -3.2 94 24 29 24.1 100.79   -9 Snow
05:00 Legend Double Dagger -1.9 -3.3 90 25 29 24.1 100.77   -9 Snow
06:00 Legend Double Dagger -1.8 -2.9 92 25 37 19.3 100.70   -10 Snow
07:00 Legend Double Dagger -1.8 -2.8 93 25 40 19.3 100.65   -10 Snow
08:00 Legend Double Dagger -1.9 -2.7 94 26 30 19.3 100.65   -9 Snow
09:00 Legend Double Dagger -1.7 -2.5 94 26 24 19.3 100.64   -8 Snow
10:00 Legend Double Dagger -1.6 -2.6 93 27 14 19.3 100.62   -6 Snow
11:00 Legend Double Dagger -1.5 -2.5 93 27 13 19.3 100.59   -6 Snow
12:00 Legend Double Dagger -1.6 -3.5 87 31 12 24.1 100.62   -6 LegendNANA
13:00 Legend Double Dagger -2.1 -3.7 89 32 13 24.1 100.62   -7 Cloudy
14:00 Legend Double Dagger -2.9 -4.5 89 35 15 24.1 100.66   -8 LegendNANA
15:00 Legend Double Dagger -4.4 -6.7 84 32 15 24.1 100.69   -10 LegendNANA
16:00 Legend Double Dagger -7.3 -9.1 87 32 23 24.1 100.71   -15 Mostly Cloudy
17:00 Legend Double Dagger -9.9 -12.3 83 34 16 24.1 100.76   -17 LegendNANA
18:00 Legend Double Dagger -11.5 -14.1 81 34 22 24.1 100.77   -20 LegendNANA
19:00 Legend Double Dagger -11.8 -14.1 83 34 23 24.1 100.80   -21 Mainly Clear
20:00 Legend Double Dagger -11.1 -13.4 83 34 20 24.1 100.81   -19 LegendNANA
21:00 Legend Double Dagger -9.9 -12.6 81 36 21 24.1 100.82   -18 LegendNANA
22:00 Legend Double Dagger -8.8 -11.5 81 36 18 24.1 100.83   -16 Cloudy
23:00 Legend Double Dagger -8.3 -10.9 82 36 17 24.1 100.81   -15 LegendNANA

Notes on Data Quality.

Legend

  • E = Estimated
  • M = Missing
  • NA = Not Available
  • ‡ = Partner data that is not subject to review by the National Climate Archives
Date modified: